Time,TemperatureF,DewpointF,PressureIn,WindDirection,WindDirectionDegrees,WindSpeedMPH,WindSpeedGustMPH,Humidity,HourlyPrecipIn,Conditions,Clouds,dailyrainin,SoftwareType,DateUTC
2013-10-25 00:08:00,31.6,30.0,30.35,North,350,0.0,0.0,94,0.00,,,0.00,weatherlink.com 1.10,2013-10-25 05:08:00,
2013-10-25 00:23:00,31.3,30.0,30.35,North,350,0.0,0.0,95,0.00,,,0.00,weatherlink.com 1.10,2013-10-25 05:23:00,
2013-10-25 00:53:00,30.7,30.0,30.36,North,350,0.0,0.0,95,0.00,,,0.00,weatherlink.com 1.10,2013-10-25 05:53:00,
2013-10-25 01:08:00,30.0,29.0,30.36,North,350,0.0,0.0,95,0.00,,,0.00,weatherlink.com 1.10,2013-10-25 06:08:00,
2013-10-25 01:23:00,30.0,29.0,30.37,North,350,0.0,0.0,96,0.00,,,0.00,weatherlink.com 1.10,2013-10-25 06:23:00,
2013-10-25 01:38:00,29.6,29.0,30.37,North,350,0.0,0.0,96,0.00,,,0.00,weatherlink.com 1.10,2013-10-25 06:38:00,
2013-10-25 02:08:00,29.2,28.0,30.38,North,350,0.0,0.0,96,0.00,,,0.00,weatherlink.com 1.10,2013-10-25 07:08:00,
2013-10-25 02:23:00,29.2,28.0,30.38,North,350,0.0,0.0,96,0.00,,,0.00,weatherlink.com 1.10,2013-10-25 07:23:00,
2013-10-25 02:38:00,29.2,28.0,30.38,North,350,0.0,0.0,96,0.00,,,0.00,weatherlink.com 1.10,2013-10-25 07:38:00,
2013-10-25 02:53:00,29.0,28.0,30.38,North,350,0.0,0.0,96,0.00,,,0.00,weatherlink.com 1.10,2013-10-25 07:53:00,
2013-10-25 03:08:00,29.0,28.0,30.38,North,350,0.0,0.0,96,0.00,,,0.00,weatherlink.com 1.10,2013-10-25 08:08:00,
2013-10-25 03:23:00,28.8,28.0,30.38,North,350,0.0,0.0,97,0.00,,,0.00,weatherlink.com 1.10,2013-10-25 08:23:00,
2013-10-25 03:38:00,28.5,28.0,30.39,North,350,0.0,0.0,96,0.00,,,0.00,weatherlink.com 1.10,2013-10-25 08:38:00,
2013-10-25 04:08:00,28.7,28.0,30.40,North,350,0.0,0.0,97,0.00,,,0.00,weatherlink.com 1.10,2013-10-25 09:08:00,
2013-10-25 04:23:00,28.8,28.0,30.40,North,350,0.0,4.0,97,0.00,,,0.00,weatherlink.com 1.10,2013-10-25 09:23:00,
2013-10-25 04:38:00,29.6,29.0,30.40,North,350,0.0,2.0,97,0.00,,,0.00,weatherlink.com 1.10,2013-10-25 09:38:00,
2013-10-25 04:54:00,30.1,29.0,30.41,North,350,0.0,2.0,96,0.00,,,0.00,weatherlink.com 1.10,2013-10-25 09:54:00,
2013-10-25 05:09:00,30.0,29.0,30.42,North,350,0.0,2.0,96,0.00,,,0.00,weatherlink.com 1.10,2013-10-25 10:09:00,
2013-10-25 05:39:00,29.0,28.0,30.43,North,350,0.0,1.0,96,0.00,,,0.00,weatherlink.com 1.10,2013-10-25 10:39:00,
2013-10-25 05:54:00,28.7,28.0,30.44,North,350,0.0,2.0,95,0.00,,,0.00,weatherlink.com 1.10,2013-10-25 10:54:00,
2013-10-25 06:09:00,29.2,28.0,30.44,North,350,0.0,1.0,96,0.00,,,0.00,weatherlink.com 1.10,2013-10-25 11:09:00,
2013-10-25 06:24:00,28.8,28.0,30.44,North,350,0.0,0.0,95,0.00,,,0.00,weatherlink.com 1.10,2013-10-25 11:24:00,
2013-10-25 06:39:00,28.6,27.0,30.44,North,350,0.0,1.0,95,0.00,,,0.00,weatherlink.com 1.10,2013-10-25 11:39:00,
2013-10-25 06:54:00,28.6,27.0,30.45,North,350,0.0,0.0,95,0.00,,,0.00,weatherlink.com 1.10,2013-10-25 11:54:00,
2013-10-25 07:09:00,28.2,27.0,30.45,North,350,0.0,0.0,95,0.00,,,0.00,weatherlink.com 1.10,2013-10-25 12:09:00,
2013-10-25 07:24:00,28.0,27.0,30.45,North,350,0.0,0.0,96,0.00,,,0.00,weatherlink.com 1.10,2013-10-25 12:24:00,
2013-10-25 07:39:00,28.1,27.0,30.45,North,350,0.0,0.0,96,0.00,,,0.00,weatherlink.com 1.10,2013-10-25 12:39:00,
2013-10-25 07:54:00,29.4,28.0,30.46,North,350,0.0,0.0,96,0.00,,,0.00,weatherlink.com 1.10,2013-10-25 12:54:00,
2013-10-25 08:24:00,32.1,31.0,30.48,North,350,0.0,1.0,94,0.00,,,0.00,weatherlink.com 1.10,2013-10-25 13:24:00,
2013-10-25 08:39:00,33.6,31.0,30.48,North,350,0.0,4.0,91,0.00,,,0.00,weatherlink.com 1.10,2013-10-25 13:39:00,
2013-10-25 08:54:00,35.2,32.0,30.48,North,355,1.0,6.0,89,0.00,,,0.00,weatherlink.com 1.10,2013-10-25 13:54:00,
2013-10-25 09:09:00,36.8,33.0,30.48,North,355,6.0,6.0,86,0.00,,,0.00,weatherlink.com 1.10,2013-10-25 14:09:00,
2013-10-25 09:24:00,38.2,34.0,30.48,North,355,6.0,7.0,84,0.00,,,0.00,weatherlink.com 1.10,2013-10-25 14:24:00,
2013-10-25 09:40:00,39.0,33.0,30.49,North,5,4.0,8.0,79,0.00,,,0.00,weatherlink.com 1.10,2013-10-25 14:40:00,
2013-10-25 09:55:00,40.4,34.0,30.49,ENE,69,5.0,7.0,78,0.00,,,0.00,weatherlink.com 1.10,2013-10-25 14:55:00,
2013-10-25 10:10:00,40.6,33.0,30.49,ENE,73,5.0,10.0,74,0.00,,,0.00,weatherlink.com 1.10,2013-10-25 15:10:00,
2013-10-25 10:40:00,41.6,32.0,30.48,NNE,31,8.0,12.0,68,0.00,,,0.00,weatherlink.com 1.10,2013-10-25 15:40:00,
2013-10-25 10:55:00,42.4,33.0,30.48,NE,37,6.0,12.0,70,0.00,,,0.00,weatherlink.com 1.10,2013-10-25 15:55:00,
2013-10-25 11:25:00,44.0,31.0,30.48,ENE,65,2.0,11.0,60,0.00,,,0.00,weatherlink.com 1.10,2013-10-25 16:25:00,
2013-10-25 11:40:00,44.5,30.0,30.47,ENE,71,6.0,10.0,58,0.00,,,0.00,weatherlink.com 1.10,2013-10-25 16:40:00,
2013-10-25 11:55:00,45.2,30.0,30.46,East,81,5.0,10.0,56,0.00,,,0.00,weatherlink.com 1.10,2013-10-25 16:55:00,
2013-10-25 12:10:00,45.2,30.0,30.46,WNW,302,5.0,10.0,55,0.00,,,0.00,weatherlink.com 1.10,2013-10-25 17:10:00,
2013-10-25 12:25:00,45.9,29.0,30.46,NNE,30,0.0,9.0,53,0.00,,,0.00,weatherlink.com 1.10,2013-10-25 17:25:00,
2013-10-25 12:40:00,47.4,31.0,30.45,NE,51,4.0,8.0,53,0.00,,,0.00,weatherlink.com 1.10,2013-10-25 17:40:00,
2013-10-25 12:55:00,47.7,32.0,30.44,NNE,21,2.0,7.0,54,0.00,,,0.00,weatherlink.com 1.10,2013-10-25 17:55:00,
2013-10-25 13:25:00,47.8,30.0,30.43,NNE,18,7.0,7.0,50,0.00,,,0.00,weatherlink.com 1.10,2013-10-25 18:25:00,
2013-10-25 13:55:00,48.4,29.0,30.41,ENE,70,1.0,8.0,48,0.00,,,0.00,weatherlink.com 1.10,2013-10-25 18:55:00,
2013-10-25 14:10:00,48.8,30.0,30.41,NE,53,4.0,7.0,49,0.00,,,0.00,weatherlink.com 1.10,2013-10-25 19:10:00,
2013-10-25 14:25:00,49.3,30.0,30.40,NE,38,4.0,7.0,47,0.00,,,0.00,weatherlink.com 1.10,2013-10-25 19:25:00,
2013-10-25 14:40:00,49.5,30.0,30.40,NNW,344,2.0,7.0,48,0.00,,,0.00,weatherlink.com 1.10,2013-10-25 19:40:00,
2013-10-25 14:55:00,49.7,28.0,30.40,NNE,16,0.0,7.0,44,0.00,,,0.00,weatherlink.com 1.10,2013-10-25 19:55:00,
2013-10-25 15:10:00,49.8,30.0,30.39,West,271,1.0,9.0,46,0.00,,,0.00,weatherlink.com 1.10,2013-10-25 20:10:00,
2013-10-25 15:40:00,50.0,28.0,30.38,East,96,0.0,7.0,43,0.00,,,0.00,weatherlink.com 1.10,2013-10-25 20:40:00,
2013-10-25 15:55:00,50.3,30.0,30.38,NNW,340,1.0,5.0,45,0.00,,,0.00,weatherlink.com 1.10,2013-10-25 20:55:00,
2013-10-25 16:10:00,49.8,28.0,30.38,NNE,15,0.0,6.0,44,0.00,,,0.00,weatherlink.com 1.10,2013-10-25 21:10:00,
2013-10-25 16:25:00,49.9,29.0,30.37,NW,312,2.0,5.0,45,0.00,,,0.00,weatherlink.com 1.10,2013-10-25 21:25:00,
2013-10-25 16:55:00,48.0,28.0,30.36,SSW,194,0.0,2.0,46,0.00,,,0.00,weatherlink.com 1.10,2013-10-25 21:55:00,
2013-10-25 17:10:00,46.9,32.0,30.35,NW,323,0.0,1.0,57,0.00,,,0.00,weatherlink.com 1.10,2013-10-25 22:10:00,
2013-10-25 17:25:00,45.4,33.0,30.34,NW,323,0.0,0.0,63,0.00,,,0.00,weatherlink.com 1.10,2013-10-25 22:25:00,
2013-10-25 17:41:00,44.3,32.0,30.34,NW,323,0.0,0.0,62,0.00,,,0.00,weatherlink.com 1.10,2013-10-25 22:41:00,
2013-10-25 17:55:00,42.4,34.0,30.34,NW,323,0.0,0.0,71,0.00,,,0.00,weatherlink.com 1.10,2013-10-25 22:55:00,
2013-10-25 18:11:00,40.8,33.0,30.34,NW,323,0.0,0.0,74,0.00,,,0.00,weatherlink.com 1.10,2013-10-25 23:11:00,
2013-10-25 18:26:00,39.3,34.0,30.34,NW,323,0.0,0.0,80,0.00,,,0.00,weatherlink.com 1.10,2013-10-25 23:26:00,
2013-10-25 18:40:00,37.9,33.0,30.34,NW,323,0.0,0.0,83,0.00,,,0.00,weatherlink.com 1.10,2013-10-25 23:40:00,
2013-10-25 18:56:00,36.9,33.0,30.34,NW,323,0.0,0.0,85,0.00,,,0.00,weatherlink.com 1.10,2013-10-25 23:56:00,
2013-10-25 19:11:00,36.2,33.0,30.34,NW,323,0.0,0.0,87,0.00,,,0.00,weatherlink.com 1.10,2013-10-26 00:11:00,
2013-10-25 19:25:00,35.6,33.0,30.34,NW,323,0.0,0.0,89,0.00,,,0.00,weatherlink.com 1.10,2013-10-26 00:25:00,
2013-10-25 19:40:00,35.0,32.0,30.34,NW,323,0.0,0.0,90,0.00,,,0.00,weatherlink.com 1.10,2013-10-26 00:40:00,
2013-10-25 19:56:00,34.4,32.0,30.34,NW,323,0.0,0.0,92,0.00,,,0.00,weatherlink.com 1.10,2013-10-26 00:56:00,
2013-10-25 20:11:00,33.9,32.0,30.33,NW,323,0.0,0.0,92,0.00,,,0.00,weatherlink.com 1.10,2013-10-26 01:11:00,
2013-10-25 20:41:00,33.4,32.0,30.33,NW,323,0.0,0.0,93,0.00,,,0.00,weatherlink.com 1.10,2013-10-26 01:41:00,
2013-10-25 20:56:00,32.9,31.0,30.33,NW,323,0.0,0.0,94,0.00,,,0.00,weatherlink.com 1.10,2013-10-26 01:56:00,
2013-10-25 21:11:00,32.4,31.0,30.33,NW,323,0.0,0.0,94,0.00,,,0.00,weatherlink.com 1.10,2013-10-26 02:11:00,
2013-10-25 21:26:00,32.2,31.0,30.32,NW,323,0.0,0.0,95,0.00,,,0.00,weatherlink.com 1.10,2013-10-26 02:26:00,
2013-10-25 21:41:00,32.1,31.0,30.32,NW,323,0.0,0.0,95,0.00,,,0.00,weatherlink.com 1.10,2013-10-26 02:41:00,
2013-10-25 22:11:00,31.5,31.0,30.32,NW,323,0.0,0.0,96,0.00,,,0.00,weatherlink.com 1.10,2013-10-26 03:11:00,
2013-10-25 22:26:00,31.1,30.0,30.32,NW,323,0.0,0.0,96,0.00,,,0.00,weatherlink.com 1.10,2013-10-26 03:26:00,
2013-10-25 22:41:00,31.0,30.0,30.31,NW,323,0.0,0.0,96,0.00,,,0.00,weatherlink.com 1.10,2013-10-26 03:41:00,
2013-10-25 22:56:00,30.6,30.0,30.31,NW,323,0.0,0.0,96,0.00,,,0.00,weatherlink.com 1.10,2013-10-26 03:56:00,
2013-10-25 23:11:00,30.4,29.0,30.30,NW,323,0.0,0.0,96,0.00,,,0.00,weatherlink.com 1.10,2013-10-26 04:11:00,
2013-10-25 23:26:00,30.4,29.0,30.30,NW,323,0.0,0.0,96,0.00,,,0.00,weatherlink.com 1.10,2013-10-26 04:26:00,
2013-10-25 23:41:00,30.3,30.0,30.29,NW,323,0.0,0.0,97,0.00,,,0.00,weatherlink.com 1.10,2013-10-26 04:41:00,
2013-10-25 23:56:00,30.3,30.0,30.28,NW,323,0.0,0.0,97,0.00,,,0.00,weatherlink.com 1.10,2013-10-26 04:56:00,